星链-5798 (STARLINK-5798 )

导读 | 豆包AI

STARLINK-5798是美国太空探索技术公司星链卫星互联网项目的一员,于2023年3月24日发射升空,属于星链低轨星座组网卫星。它运行在近地轨道,承担全球互联网覆盖服务任务,依托星链大规模星座组网,可提供高速低延迟网络服务,服务民用、商业乃至特殊场景的网络需求。

基本信息
目录编号:
56040
目录名称:
STARLINK-5798
国际标识:
2023-042BG
轨道中心:
EARTH
卫星名称:
星链-5798
卫星全名:
星链-5798 (STARLINK-5798 )
卫星状态:
在轨 (已飞行1087 天)
发射日期:
2023-03-24 UTC
国别 :
美国 (US)
星等 :
--
轨道信息
数据来源 国际轨道数据
星历时间: 2026-03-15T22:00:02+0800
7小时前
查看轨道信息
半长轴: 6893.118km
偏心率: 0.0001506
轨道倾角: 43.000°
近地点辐角 281.159°
升交点赤经 357.160°
平近点角 193.850°
近地点: 513.942km
远地点: 516.02km
周期: 94.926分钟
每日圈数: 15.169778
详细信息
固有亮度:
5
最大亮度:
2.5
卫星平台:
Starlink v1.5
覆盖范围:
全球
运营商:
太空探索技术公司
运营商所在国:
美国
制造商(研发单位):
太空探索技术公司
制造商所在国:
美国
使用方式:
暂无
卫星简介
星链(Starlink)计划是由太空探索技术公司(SpaceX)提出的一个巨型低轨卫星互联网星座项目,计划在2019年至2024年间在太空搭建由约1.2万颗卫星组成的“星链”网络,其中1584颗将部署在地球上空550千米处的近地轨道,并从2020年开始工作。该卫星仍在工作。
2D轨道图
3D轨道图
轨道高度分析图
轨道倾角分析图
轨道综合分析图
查看轨道综合分析图